When you browse on this site, cookies collect data to enhance your experience and personalize the content and advertising you see.
Visit our Privacy Policy to learn more. By continuing to use the site, you agree to this use of cookies and data.
  • In Schweiz
  • Länderverzeichnis
  • Für 7 Tage
  • Wassertemperatur
  • Satellitenkarten
  • Wetterkarte
  • Widgets
  • user-avatar
    Anmelden

    Stündliche Wetter Hobart

    Heute, 23 März, Samstag

    Zeit Temperatur Niederschläge Wind Luftdruck Luftfeuchtigkeit
    00:00 +15°C° 0 mm 2 m/S 748 mmHg 95%
    01:00 +15°C° 0 mm 2 m/S 748 mmHg 95%
    02:00 +15°C° 0 mm 2 m/S 747 mmHg 94%
    03:00 +15°C° 0 mm 2 m/S 747 mmHg 94%
    04:00 +14°C° 0 mm 3 m/S 746 mmHg 94%
    05:00 +14°C° 0 mm 3 m/S 746 mmHg 92%
    06:00 +14°C° 0 mm 3 m/S 745 mmHg 91%
    07:00 +14°C° 0 mm 3 m/S 745 mmHg 89%
    08:00 +17°C° 0 mm 3 m/S 745 mmHg 80%
    09:00 +19°C° 0 mm 4 m/S 744 mmHg 70%
    10:00 +21°C° 0 mm 3 m/S 744 mmHg 61%
    11:00 +22°C° 0 mm 3 m/S 743 mmHg 56%
    12:00 +23°C° 0 mm 4 m/S 743 mmHg 51%
    13:00 +25°C° 0 mm 4 m/S 742 mmHg 46%
    14:00 +23°C° 0 mm 4 m/S 741 mmHg 51%
    15:00 +23°C° 0 mm 4 m/S 740 mmHg 55%
    16:00 +21°C° 0 mm 4 m/S 739 mmHg 67%
    17:00 +21°C° 0 mm 3 m/S 739 mmHg 68%
    18:00 +20°C° 0 mm 3 m/S 739 mmHg 69%
    19:00 +20°C° 0 mm 3 m/S 739 mmHg 70%
    20:00 +19°C° 0 mm 3 m/S 739 mmHg 73%
    21:00 +19°C° 0 mm 3 m/S 739 mmHg 75%
    22:00 +19°C° 0 mm 2 m/S 740 mmHg 77%
    23:00 +18°C° 0 mm 2 m/S 740 mmHg 79%

    Morgen, 24 März, Sonntag

    Zeit Temperatur Niederschläge Wind Luftdruck Luftfeuchtigkeit
    00:00 +18°C° 0 mm 2 m/S 740 mmHg 80%
    01:00 +18°C° 0 mm 2 m/S 740 mmHg 82%
    02:00 +17°C° 0 mm 2 m/S 740 mmHg 83%
    03:00 +16°C° 0 mm 2 m/S 741 mmHg 83%
    04:00 +16°C° 0 mm 2 m/S 741 mmHg 84%
    05:00 +15°C° 0 mm 2 m/S 741 mmHg 84%
    06:00 +15°C° 0 mm 1 m/S 741 mmHg 85%
    07:00 +15°C° 0 mm 1 m/S 742 mmHg 85%
    08:00 +18°C° 0 mm 1 m/S 742 mmHg 74%
    09:00 +20°C° 0 mm 1 m/S 742 mmHg 63%
    10:00 +22°C° 0 mm 1 m/S 742 mmHg 52%
    11:00 +23°C° 0 mm 2 m/S 741 mmHg 48%
    12:00 +23°C° 0 mm 2 m/S 741 mmHg 45%
    13:00 +24°C° 0 mm 3 m/S 740 mmHg 42%
    14:00 +24°C° 0 mm 3 m/S 739 mmHg 40%
    15:00 +25°C° 0 mm 3 m/S 739 mmHg 38%
    16:00 +26°C° 0 mm 4 m/S 738 mmHg 36%
    17:00 +23°C° 0 mm 4 m/S 737 mmHg 43%
    18:00 +21°C° 0 mm 4 m/S 736 mmHg 51%
    19:00 +19°C° 0 mm 4 m/S 736 mmHg 59%
    20:00 +18°C° 0 mm 4 m/S 735 mmHg 64%
    21:00 +17°C° 0 mm 5 m/S 734 mmHg 69%
    22:00 +16°C° 0 mm 5 m/S 733 mmHg 74%
    23:00 +17°C° 0.3 mm 6 m/S 731 mmHg 74%

    übermorgen, 25 März, Montag

    Zeit Temperatur Niederschläge Wind Luftdruck Luftfeuchtigkeit
    00:00 +17°C° 0.3 mm 6 m/S 730 mmHg 75%
    01:00 +19°C° 0.3 mm 6 m/S 729 mmHg 75%
    02:00 +17°C° 0.3 mm 7 m/S 729 mmHg 73%
    03:00 +16°C° 0.3 mm 7 m/S 729 mmHg 71%
    04:00 +14°C° 0.3 mm 7 m/S 729 mmHg 68%
    05:00 +12°C° 0 mm 8 m/S 729 mmHg 63%
    06:00 +11°C° 0 mm 8 m/S 730 mmHg 59%
    07:00 +10°C° 0 mm 9 m/S 730 mmHg 54%
    08:00 +11°C° 0 mm 9 m/S 731 mmHg 50%
    09:00 +11°C° 0 mm 9 m/S 731 mmHg 47%
    10:00 +12°C° 0 mm 9 m/S 732 mmHg 44%
    11:00 +12°C° 0.2 mm 9 m/S 732 mmHg 46%
    12:00 +11°C° 0.2 mm 9 m/S 732 mmHg 48%
    13:00 +11°C° 0.2 mm 9 m/S 732 mmHg 50%
    14:00 +11°C° 0.1 mm 9 m/S 733 mmHg 50%
    15:00 +10°C° 0.1 mm 9 m/S 733 mmHg 50%
    16:00 +10°C° 0.1 mm 9 m/S 733 mmHg 50%
    17:00 +8°C° 0 mm 9 m/S 734 mmHg 52%
    18:00 +9°C° 0 mm 8 m/S 734 mmHg 54%
    19:00 +7°C° 0 mm 8 m/S 735 mmHg 55%
    20:00 +7°C° 0.1 mm 8 m/S 735 mmHg 60%
    21:00 +7°C° 0.1 mm 8 m/S 735 mmHg 65%
    22:00 +7°C° 0.1 mm 8 m/S 736 mmHg 70%
    23:00 +7°C° 0 mm 8 m/S 736 mmHg 69%

    26 März, Dienstag

    Zeit Temperatur Niederschläge Wind Luftdruck Luftfeuchtigkeit
    00:00 +7°C° 0 mm 8 m/S 737 mmHg 67%
    01:00 +7°C° 0 mm 8 m/S 737 mmHg 65%
    02:00 +8°C° 0 mm 7 m/S 738 mmHg 64%
    03:00 +8°C° 0 mm 7 m/S 738 mmHg 63%
    04:00 +8°C° 0 mm 7 m/S 739 mmHg 63%
    05:00 +9°C° 0 mm 7 m/S 740 mmHg 62%
    06:00 +9°C° 0 mm 7 m/S 741 mmHg 61%
    07:00 +9°C° 0 mm 7 m/S 742 mmHg 60%
    08:00 +10°C° 0 mm 7 m/S 743 mmHg 58%
    09:00 +11°C° 0 mm 8 m/S 743 mmHg 56%
    10:00 +12°C° 0 mm 8 m/S 744 mmHg 54%
    11:00 +13°C° 0 mm 8 m/S 744 mmHg 52%
    12:00 +14°C° 0 mm 7 m/S 745 mmHg 50%
    13:00 +15°C° 0 mm 7 m/S 745 mmHg 48%
    14:00 +15°C° 0 mm 7 m/S 745 mmHg 51%
    15:00 +14°C° 0 mm 7 m/S 746 mmHg 53%
    16:00 +14°C° 0 mm 6 m/S 746 mmHg 55%
    17:00 +13°C° 0 mm 6 m/S 747 mmHg 61%
    18:00 +13°C° 0 mm 5 m/S 748 mmHg 67%
    19:00 +12°C° 0 mm 4 m/S 748 mmHg 72%
    20:00 +11°C° 0 mm 3 m/S 749 mmHg 77%
    21:00 +10°C° 0 mm 3 m/S 750 mmHg 81%
    22:00 +10°C° 0 mm 3 m/S 751 mmHg 85%
    23:00 +9°C° 0 mm 2 m/S 751 mmHg 87%

    27 März, Mittwoch

    Zeit Temperatur Niederschläge Wind Luftdruck Luftfeuchtigkeit
    00:00 +9°C° 0 mm 2 m/S 751 mmHg 88%
    01:00 +8°C° 0 mm 2 m/S 751 mmHg 89%
    02:00 +8°C° 0 mm 2 m/S 751 mmHg 91%
    03:00 +8°C° 0 mm 2 m/S 752 mmHg 93%
    04:00 +8°C° 0 mm 1 m/S 752 mmHg 94%
    05:00 +9°C° 0 mm 1 m/S 752 mmHg 94%
    06:00 +8°C° 0 mm 2 m/S 753 mmHg 94%
    07:00 +8°C° 0 mm 2 m/S 753 mmHg 93%
    08:00 +11°C° 0 mm 1 m/S 753 mmHg 80%
    09:00 +14°C° 0 mm 1 m/S 754 mmHg 67%
    10:00 +18°C° 0 mm 1 m/S 754 mmHg 54%
    11:00 +20°C° 0 mm 1 m/S 754 mmHg 47%
    12:00 +22°C° 0 mm 1 m/S 754 mmHg 41%
    13:00 +24°C° 0 mm 1 m/S 753 mmHg 35%
    14:00 +23°C° 0 mm 1 m/S 753 mmHg 37%
    15:00 +23°C° 0 mm 2 m/S 752 mmHg 39%
    16:00 +21°C° 0 mm 2 m/S 752 mmHg 41%
    17:00 +19°C° 0 mm 2 m/S 752 mmHg 54%
    18:00 +16°C° 0 mm 2 m/S 752 mmHg 66%
    19:00 +14°C° 0 mm 1 m/S 752 mmHg 79%
    20:00 +13°C° 0 mm 1 m/S 752 mmHg 81%
    21:00 +13°C° 0 mm 1 m/S 752 mmHg 84%
    22:00 +12°C° 0 mm 1 m/S 752 mmHg 86%
    23:00 +12°C° 0 mm 1 m/S 751 mmHg 88%

    28 März, Donnerstag

    Zeit Temperatur Niederschläge Wind Luftdruck Luftfeuchtigkeit
    00:00 +11°C° 0 mm 1 m/S 750 mmHg 89%
    01:00 +10°C° 0 mm 2 m/S 750 mmHg 91%
    02:00 +10°C° 0 mm 2 m/S 749 mmHg 90%
    03:00 +10°C° 0 mm 2 m/S 749 mmHg 90%
    04:00 +10°C° 0 mm 2 m/S 749 mmHg 89%
    05:00 +10°C° 0 mm 2 m/S 748 mmHg 86%
    06:00 +12°C° 0 mm 2 m/S 748 mmHg 83%
    07:00 +11°C° 0 mm 3 m/S 748 mmHg 79%
    08:00 +14°C° 0 mm 3 m/S 748 mmHg 68%
    09:00 +18°C° 0 mm 4 m/S 747 mmHg 58%
    10:00 +21°C° 0 mm 5 m/S 747 mmHg 47%
    11:00 +22°C° 0 mm 5 m/S 746 mmHg 43%
    12:00 +23°C° 0 mm 5 m/S 745 mmHg 40%
    13:00 +25°C° 0 mm 5 m/S 744 mmHg 36%
    14:00 +25°C° 0 mm 5 m/S 743 mmHg 38%
    15:00 +23°C° 0 mm 5 m/S 743 mmHg 40%
    16:00 +23°C° 0 mm 5 m/S 742 mmHg 43%
    17:00 +21°C° 0 mm 4 m/S 742 mmHg 48%
    18:00 +19°C° 0 mm 4 m/S 742 mmHg 54%
    19:00 +18°C° 0 mm 3 m/S 742 mmHg 60%
    20:00 +17°C° 0 mm 3 m/S 742 mmHg 63%
    21:00 +16°C° 0 mm 3 m/S 742 mmHg 66%
    22:00 +14°C° 0 mm 3 m/S 742 mmHg 70%
    23:00 +14°C° 0.2 mm 3 m/S 742 mmHg 73%
    Mehr zeigen